| time (UTC) | temp C | wind direction | speed KPH | gust KPH | rain 1hr cm | rain 24hr cm | rain mn cm | humidity % | barometer mb |
| 20260903091513 | 9 | 11 | 3.2 | 6.4 | 0.05 | 0.05 | 0.05 | 85 | 1007.1 |
| 20260903090010 | 8 | 12 | 3.2 | 8.0 | 0.03 | 0.05 | 0.03 | 82 | 1007.3 |
| 20260903084510 | 8 | 12 | 6.4 | 9.7 | 0.03 | 0.05 | 0.03 | 80 | 1007.5 |
| 20260903083010 | 8 | 5 | 6.4 | 14.5 | 0.00 | 0.03 | 0.00 | 79 | 1007.6 |
| 20260903081521 | 8 | 326 | 6.4 | 14.5 | 0.00 | 0.03 | 0.00 | 77 | 1007.7 |
| 20260903080010 | 8 | 5 | 4.8 | 14.5 | 0.00 | 0.03 | 0.00 | 78 | 1007.8 |
| 20260903074509 | 8 | 360 | 8.0 | 17.7 | 0.00 | 0.03 | 0.00 | 78 | 1008.0 |
| 20260903073014 | 8 | 26 | 8.0 | 16.1 | 0.00 | 0.03 | 0.00 | 78 | 1008.1 |
| 20260903071510 | 7 | 347 | 0.0 | 6.4 | 0.00 | 0.03 | 0.00 | 82 | 1008.1 |
| 20260903070009 | 7 | 347 | 1.6 | 12.9 | 0.00 | 0.03 | 0.00 | 83 | 1008.2 |
| 20260903064509 | 6 | 355 | 4.8 | 9.7 | 0.00 | 0.03 | 0.00 | 86 | 1008.5 |
| 20260903063009 | 6 | 319 | 0.0 | 6.4 | 0.00 | 0.03 | 0.00 | 88 | 1008.8 |
| 20260903061516 | 6 | 319 | 0.0 | 4.8 | 0.00 | 0.03 | 0.00 | 89 | 1008.7 |
| 20260903060010 | 6 | 319 | 1.6 | 6.4 | 0.00 | 0.03 | 0.00 | 89 | 1008.9 |
| 20260903054510 | 6 | 319 | 0.0 | 4.8 | 0.00 | 0.03 | 0.00 | 90 | 1009.1 |
| 20260903053009 | 5 | 319 | 0.0 | 6.4 | 0.00 | 0.03 | 0.00 | 90 | 1009.1 |
| 20260903051510 | 5 | 321 | 0.0 | 8.0 | 0.00 | 0.03 | 0.00 | 91 | 1009.2 |
| 20260903050009 | 5 | 319 | 1.6 | 8.0 | 0.00 | 0.03 | 0.00 | 91 | 1009.2 |
| 20260903044510 | 5 | 251 | 0.0 | 6.4 | 0.00 | 0.03 | 0.00 | 92 | 1009.3 |
| 20260903043009 | 4 | 251 | 1.6 | 4.8 | 0.00 | 0.03 | 0.00 | 92 | 1009.3 |
| 20260903041519 | 4 | 251 | 0.0 | 1.6 | 0.00 | 0.03 | 0.00 | 91 | 1009.6 |
| 20260903040009 | 4 | 251 | 0.0 | 6.4 | 0.00 | 0.03 | 0.00 | 91 | 1009.7 |
| 20260903034520 | 4 | 251 | 3.2 | 6.4 | 0.00 | 0.03 | 0.00 | 91 | 1009.8 |
| 20260903033009 | 4 | 251 | 0.0 | 4.8 | 0.00 | 0.03 | 0.00 | 90 | 1009.9 |
| 20260903031510 | 4 | 250 | 0.0 | 0.0 | 0.00 | 0.03 | 0.00 | 90 | 1010.1 |
| 20260903030009 | 4 | 251 | 0.0 | 0.0 | 0.00 | 0.03 | 0.00 | 90 | 1010.2 |
| 20260903024510 | 5 | 250 | 0.0 | 0.0 | 0.00 | 0.03 | 0.00 | 89 | 1010.3 |
| 20260903021514 | 5 | 251 | 0.0 | 0.0 | 0.00 | 0.03 | 0.00 | 89 | 1010.3 |
| 20260903020010 | 5 | 250 | 0.0 | 0.0 | 0.00 | 0.03 | 0.00 | 89 | 1010.3 |
| 20260903014511 | 5 | 251 | 0.0 | 0.0 | 0.00 | 0.03 | 0.00 | 88 | 1010.3 |
| 20260903013009 | 6 | 251 | 0.0 | 1.6 | 0.00 | 0.03 | 0.00 | 88 | 1010.4 |
| 20260903011510 | 6 | 251 | 0.0 | 4.8 | 0.00 | 0.03 | 0.00 | 88 | 1010.7 |
| 20260903010009 | 6 | 250 | 0.0 | 1.6 | 0.00 | 0.05 | 0.00 | 87 | 1010.7 |
| 20260903004512 | 6 | 251 | 0.0 | 3.2 | 0.00 | 0.05 | 0.00 | 87 | 1010.8 |
| 20260903003010 | 6 | 251 | 0.0 | 1.6 | 0.00 | 0.05 | 0.00 | 85 | 1010.9 |
| 20260903001511 | 6 | 251 | 0.0 | 0.0 | 0.00 | 0.05 | 0.00 | 83 | 1010.8 |
| 20260902234515 | 7 | 251 | 0.0 | 4.8 | 0.00 | 0.05 | 0.00 | 83 | 1011.0 |
| 20260902230014 | 8 | 251 | 0.0 | 0.0 | 0.00 | 0.08 | 0.00 | 80 | 1011.3 |
| 20260902223010 | 8 | 251 | 0.0 | 3.2 | 0.00 | 0.08 | 0.00 | 73 | 1011.5 |
| 20260902221516 | 8 | 251 | 0.0 | 3.2 | 0.00 | 0.08 | 0.00 | 71 | 1011.5 |
| 20260902220010 | 9 | 251 | 1.6 | 4.8 | 0.00 | 0.08 | 0.08 | 70 | 1011.4 |
| 20260902214512 | 9 | 251 | 0.0 | 4.8 | 0.00 | 0.08 | 0.08 | 68 | 1011.5 |
| 20260902213009 | 10 | 251 | 0.0 | 4.8 | 0.00 | 0.08 | 0.08 | 68 | 1011.5 |
| 20260902211510 | 10 | 251 | 0.0 | 3.2 | 0.00 | 0.08 | 0.08 | 66 | 1011.5 |
| 20260902210009 | 10 | 250 | 3.2 | 12.9 | 0.00 | 0.08 | 0.08 | 65 | 1011.4 |
| 20260902204510 | 10 | 269 | 1.6 | 12.9 | 0.00 | 0.08 | 0.08 | 65 | 1011.3 |
| 20260902203009 | 10 | 267 | 1.6 | 9.7 | 0.00 | 0.08 | 0.08 | 64 | 1011.3 |
| 20260902201511 | 11 | 305 | 0.0 | 3.2 | 0.00 | 0.08 | 0.08 | 63 | 1011.3 |
| 20260902200009 | 11 | 305 | 3.2 | 12.9 | 0.00 | 0.08 | 0.08 | 62 | 1011.4 |
| 20260902194513 | 11 | 243 | 3.2 | 11.3 | 0.00 | 0.08 | 0.08 | 61 | 1011.5 |
| 20260902193010 | 11 | 298 | 1.6 | 8.0 | 0.00 | 0.08 | 0.08 | 60 | 1011.2 |
| 20260902191510 | 11 | 293 | 3.2 | 11.3 | 0.00 | 0.08 | 0.08 | 58 | 1011.1 |
| 20260902190010 | 12 | 252 | 0.0 | 6.4 | 0.00 | 0.08 | 0.08 | 56 | 1011.0 |
| 20260902184510 | 12 | 251 | 0.0 | 14.5 | 0.00 | 0.08 | 0.08 | 54 | 1011.0 |
| 20260902183014 | 12 | 244 | 1.6 | 16.1 | 0.00 | 0.08 | 0.08 | 53 | 1010.9 |
| 20260902181510 | 13 | 280 | 9.7 | 16.1 | 0.00 | 0.08 | 0.08 | 51 | 1010.8 |
| 20260902180011 | 13 | 275 | 9.7 | 19.3 | 0.00 | 0.08 | 0.08 | 51 | 1010.6 |
| 20260902174510 | 14 | 288 | 6.4 | 25.7 | 0.00 | 0.08 | 0.08 | 48 | 1010.4 |
| 20260902173009 | 15 | 239 | 3.2 | 20.9 | 0.00 | 0.08 | 0.08 | 48 | 1010.3 |
| 20260902171510 | 15 | 229 | 14.5 | 22.5 | 0.00 | 0.08 | 0.08 | 48 | 1010.2 |
| 20260902170010 | 15 | 304 | 16.1 | 29.0 | 0.00 | 0.08 | 0.08 | 48 | 1010.1 |
| 20260902164511 | 15 | 273 | 14.5 | 30.6 | 0.00 | 0.08 | 0.08 | 46 | 1010.1 |
| 20260902163010 | 15 | 292 | 19.3 | 32.2 | 0.00 | 0.08 | 0.08 | 45 | 1010.1 |
| 20260902161517 | 16 | 279 | 14.5 | 30.6 | 0.00 | 0.08 | 0.08 | 44 | 1010.3 |
| 20260902160010 | 16 | 276 | 4.8 | 22.5 | 0.00 | 0.08 | 0.08 | 45 | 1010.0 |
| 20260902154523 | 16 | 274 | 14.5 | 25.7 | 0.00 | 0.08 | 0.08 | 44 | 1010.2 |
| 20260902153009 | 16 | 271 | 19.3 | 32.2 | 0.00 | 0.08 | 0.08 | 44 | 1010.2 |
| 20260902151509 | 17 | 229 | 11.3 | 22.5 | 0.00 | 0.08 | 0.08 | 44 | 1010.1 |
| 20260902150009 | 16 | 196 | 16.1 | 33.8 | 0.00 | 0.08 | 0.08 | 43 | 1010.0 |
| 20260902144526 | 17 | 276 | 16.1 | 33.8 | 0.00 | 0.08 | 0.08 | 40 | 1010.1 |
| 20260902143015 | 17 | 293 | 19.3 | 29.0 | 0.00 | 0.08 | 0.08 | 40 | 1010.0 |
| 20260902141519 | 17 | 261 | 17.7 | 30.6 | 0.00 | 0.08 | 0.08 | 43 | 1010.0 |
| 20260902140016 | 17 | 269 | 16.1 | 35.4 | 0.00 | 0.08 | 0.08 | 41 | 1009.9 |
| 20260902134523 | 17 | 236 | 14.5 | 33.8 | 0.00 | 0.08 | 0.08 | 41 | 1010.0 |
| 20260902133010 | 17 | 279 | 14.5 | 37.0 | 0.00 | 0.08 | 0.08 | 45 | 1009.8 |
| 20260902131511 | 17 | 282 | 12.9 | 32.2 | 0.00 | 0.08 | 0.08 | 47 | 1009.9 |
| 20260902130012 | 17 | 286 | 17.7 | 32.2 | 0.00 | 0.08 | 0.08 | 49 | 1010.0 |
| 20260902124509 | 16 | 281 | 19.3 | 32.2 | 0.00 | 0.08 | 0.08 | 54 | 1010.2 |
| 20260902123009 | 16 | 216 | 22.5 | 35.4 | 0.00 | 0.08 | 0.08 | 51 | 1010.0 |
| 20260902121508 | 17 | 252 | 19.3 | 30.6 | 0.00 | 0.08 | 0.08 | 51 | 1010.0 |
| 20260902120009 | 16 | 323 | 14.5 | 27.4 | 0.03 | 0.08 | 0.08 | 56 | 1009.8 |
| 20260902114510 | 16 | 252 | 14.5 | 27.4 | 0.03 | 0.08 | 0.08 | 60 | 1010.1 |
| 20260902113023 | 14 | 270 | 9.7 | 17.7 | 0.03 | 0.08 | 0.08 | 67 | 1010.3 |
| 20260902111516 | 15 | 289 | 12.9 | 38.6 | 0.03 | 0.08 | 0.08 | 68 | 1010.4 |
| 20260902110010 | 15 | 273 | 16.1 | 29.0 | 0.00 | 0.05 | 0.05 | 63 | 1010.2 |
| 20260902104510 | 15 | 305 | 6.4 | 20.9 | 0.00 | 0.05 | 0.05 | 69 | 1010.1 |
| 20260902103023 | 15 | 300 | 9.7 | 35.4 | 0.00 | 0.05 | 0.05 | 72 | 1010.4 |
| 20260902101513 | 15 | 212 | 14.5 | 27.4 | 0.00 | 0.05 | 0.05 | 67 | 1010.1 |
| 20260902100016 | 14 | 242 | 19.3 | 35.4 | 0.00 | 0.05 | 0.05 | 67 | 1010.5 |
| 20260902094510 | 15 | 266 | 14.5 | 29.0 | 0.00 | 0.05 | 0.05 | 64 | 1010.2 |
| 20260902093009 | 15 | 242 | 16.1 | 24.1 | 0.00 | 0.05 | 0.05 | 63 | 1010.2 |